OPS 7218 (TRANSIT 16) 1 02807U 67048A 26255.23565271 .00000073 00000+0 96862-4 0 9997 2 02807 89.6785 345.0358 0021456 49.6128 338.9399 13.50779374919681 OPS 4947 (TRANSIT 17) 1 02965U 67092A 26255.26196263 .00000081 00000+0 10302-3 0 9998 2 02965 89.2619 3.7262 0048599 159.5284 229.2898 13.53511841907972 OPS 7034 (TRANSIT 18) 1 03133U 68012A 26255.10168688 .00000097 00000+0 13152-3 0 9995 2 03133 90.0212 274.3386 0075879 98.4760 321.7539 13.51623231606110 NNSS 19 (TRANSIT 19) 1 04507U 70067A 26254.99711375 .00000062 00000+0 74710-4 0 9997 2 04507 90.0173 234.8752 0170155 220.5732 138.2637 13.51377659759120 NNSS 20 (TRANSIT 20) 1 06909U 73081A 26255.27732462 .00000131 00000+0 12442-3 0 9996 2 06909 89.8592 250.9961 0153649 338.6945 20.7864 13.71531598841109 TRANSAT 1 10457U 77106A 26255.05857366 .00000051 00000+0 64964-4 0 9996 2 10457 89.6426 68.8142 0027083 122.8355 356.4662 13.48980601404289 NOVA 1 1 12458U 81044A 26255.08504786 .00000024 00000+0 35794-4 0 9992 2 12458 89.8385 87.3310 0016111 72.5180 50.6583 13.23309190188014 NOVA 3 1 15362U 84110A 26255.08347185 .00000022 00000+0 33990-4 0 9998 2 15362 90.1112 83.6114 0029917 297.7530 183.2142 13.23076421023125 OSCAR 30 1 15935U 85066A 26255.17186839 .00000095 00000+0 15402-3 0 9999 2 15935 90.1464 104.0707 0168944 32.6948 87.9653 13.36123266000968 OSCAR 24 1 15936U 85066B 26255.10900693 .00000065 00000+0 99847-4 0 9998 2 15936 90.1626 96.9238 0170137 39.4409 73.7381 13.35978449002942 POLAR BEAR 1 17070U 86088A 26255.27358757 .00000079 00000+0 70574-4 0 9991 2 17070 89.6256 172.9358 0040174 18.2096 146.8542 13.75300635997389 OSCAR 27 1 18361U 87080A 26255.10386714 .00000079 00000+0 11584-3 0 9999 2 18361 90.3619 89.3449 0104301 160.5773 199.9396 13.44953577912314 OSCAR 29 1 18362U 87080B 26255.07108227 .00000064 00000+0 93164-4 0 9996 2 18362 90.3628 89.8217 0105053 184.3440 296.6941 13.44489224911822 OSCAR 23 1 19070U 88033A 26255.28470867 .00000032 00000+0 45585-4 0 9996 2 19070 90.3352 25.0569 0190748 139.2548 244.7651 13.27827771858835 OSCAR 32 1 19071U 88033B 26255.30437086 .00000033 00000+0 46813-4 0 9992 2 19071 90.3358 25.2041 0189396 125.9453 263.4831 13.27989045858968 NOVA 2 1 19223U 88052A 26255.03382299 .00000064 00000+0 13057-3 0 9994 2 19223 89.9784 77.8139 0029922 343.7918 136.7678 13.22964196845613 OSCAR 25 1 19419U 88074A 26255.31525068 .00000056 00000+0 80139-4 0 9996 2 19419 90.0484 21.3166 0096183 184.6348 204.2657 13.42669430863114 OSCAR 31 1 19420U 88074B 26255.27204350 .00000057 00000+0 81691-4 0 9996 2 19420 90.0500 21.7113 0094564 179.0403 200.9570 13.42621086863215